Regional Weather Roundup
Issued by NWS State College, PA

Home | Current Version | Previous Version | Graphics & Text | Print | Product List | Glossary Off
Versions: 1 2 3 4 5 6 7 8 9 10 11 12 13 14 15 16 17 18 19 20 21 22 23 24 25 26 27 28 29 30 31 32 33 34 35 36 37 38 39 40 41 42 43 44 45 46 47 48 49 50

236
ASUS41 KCTP 270203
RWRCTP

REGIONAL WEATHER ROUNDUP
NATIONAL WEATHER SERVICE STATE COLLEGE PA
1000 PM EDT SUN MAR 26 2017

Note: "fair" indicates few or no clouds below 12,000 feet with no
significant weather and/or obstructions to visibility.

* = STATION THAT DOES NOT REPORT PRECIPITATION /E.G. RAIN...SNOW...ETC/
    THUNDER OR FOG.

PAZ002>004-007>009-013>016-020>023-029>032-270300-
WESTERN PENNSYLVANIA

CITY           SKY/WX    TMP DP  RH WIND       PRES   REMARKS
ERIE           CLOUDY    52  47  83 S13       29.96S
MEADVILLE      MOCLDY    50  32  50 SE9       29.98S
FRANKLIN*      CLOUDY    46  43  87 SE18      30.02F
NEW CASTLE     MOCLDY    52  50  93 SE10      30.00S
BEAVER COUNTY  NOT AVBL
BUTLER*        CLOUDY    50  48  93 SE8       30.04R
PITTSBURGH INT CLOUDY    54  54 100 SE9       30.01S
PITTSBURGH     LGT RAIN  53  50  89 SE12      30.03R
INDIANA*       CLOUDY    48  46  93 SE12G17   30.11F
LATROBE        LGT RAIN  50  50 100 SE12      30.08F
WASHINGTON CO* CLOUDY    54  52  94 SE7       30.03F
$$

PAZ004>006-010>012-017>019-024>028-033>037-041-042-045-046-049>053-270300-
CENTRAL PENNSYLVANIA

CITY           SKY/WX    TMP DP  RH WIND       PRES   REMARKS
BRADFORD       LGT RAIN  41  41 100 S13G23    30.07F FOG
DUBOIS         LGT RAIN  43  40  89 SE13      30.08F FOG
CLEARFIELD       N/A    N/A N/A N/A MISG      30.15R
JOHNSTOWN      RAIN      43  43 100 S7        30.13R FOG
ALTOONA        LGT RAIN  44  43  96 SE5       30.18R FOG
STATE COLLEGE  NOT AVBL
WILLIAMSPORT   CLOUDY    41  38  89 E7        30.23S FOG
SELINSGROVE    CLOUDY    41  39  93 SE6       30.26F
FT INDIANTOWN  CLOUDY    40  40 100 E9        30.27F FOG
CAPITAL CITY   CLOUDY    44  41  89 E8        30.26F FOG
HARRISBURG     DRIZZLE   43  42  97 E12       30.26S FOG
YORK           CLOUDY    43  43 100 E7        30.25F FOG
$$

PAZ038>040-043-044-047-048-054-055-060>062-067>071-270300-
EASTERN PENNSYLVANIA

CITY           SKY/WX    TMP DP  RH WIND       PRES   REMARKS
SCRANTON       CLOUDY    39  35  86 E5        30.25S
MOUNT POCONO   FOG       31  31 100 SE14      30.24R VSB 1/4
ALLENTOWN      CLOUDY    40  36  86 E10       30.32R FOG
QUAKERTOWN*    CLOUDY    37  37 100 E3        30.32R
READING        CLOUDY    40  40 100 E7        30.29S FOG
LANCASTER      LGT RAIN  42  42 100 E8        30.28S FOG
COATESVILLE    MIX PCPN  41  41 100 E9G16     30.29S
POTTSTOWN      CLOUDY    39  38  96 E6        30.32R FOG
BLUE BELL      CLOUDY    37  37 100 E9        30.30S
DOYLESTOWN     CLOUDY    38  38 100 VRB5      30.30F
WILLOW GROVE   NOT AVBL
NORTH PHILA    CLOUDY    41  39  93 E13       30.33S FOG
PHILADELPHIA   CLOUDY    41  39  93 E13       30.31S FOG
$$




USA.gov is the U.S. government's official web portal to all federal, state and local government web resources and services.